User: anonymous   Login
Location: Unspecified
(0.0000°N, 0.0000°E)
Time: 20:00:11
(UTC+00:00)
Language:

PAYLOAD C - Orbit

View from above orbital plane
View from above orbital plane
View from above satellite
View from above satellite

Ground track
Ground track

The orbit data is extracted from the following two-line orbital elements,

1 27057U 01058C   18172.12178104  .00000017  00000-0  36401-4 0  9994
2 27057  82.5444 282.1536 0001263 138.1872 221.9315 12.61548069758903
Epoch (UTC): 21 June 2018 02:55:21
Eccentricity: 0.0001263
inclination: 82.5444°
perigee height: 1415 km
apogee height: 1417 km
right ascension of ascending node: 282.1536°
argument of perigee: 138.1872°
revolutions per day: 12.61548069
mean anomaly at epoch: 221.9315°
orbit number at epoch: 75890

The dashed part of the orbit path shows where the satellite is in the earth's shadow,  

DLR